Find Starlink 6330

NORAD ID: 57239 Int'l Des: 2023-094 Owner: SPXS Country: US Constellation: starlink operational
LEOCIRCULAR

当前视图

正在加载3D地球...

About Starlink 6330

Starlink 6330 (NORAD 57239) is a starlink constellation satellite (v1.5) launched Jul 7, 2023 by SPXS of US. It operates in LEO, CIRCULAR orbit with a mass of 305.00 kg.

即将过境

Passes for default location (London). Set your location on the main map for personalized predictions.

高度历史

Loading altitude history...

两行轨道根数

1 57239U 23094X 26254.55065387 -.00000127 00000-0 48984-5 0 9991
2 57239 43.0026 60.7995 0001087 279.2347 80.8382 15.27579423175545
Epoch: Sep 11, 2026 • Age: 18 hours

当前状态

高度 484.2 km
远地点 / 近地点 N/A
速度 7.63 km/s
星下点 29.81°N, 101.76°E
发射日期 Jul 7, 2023
运行时间 3.1 years
类型 internet

技术详情

分类 Payload
质量 305.00 kg
干质量 290.00 kg
总质量 305.00 kg
长度 0.20 m
直径 2.80 m
跨度 9.00 m
形状 Box + pan
制造商 SPXS
平台类型 Starlink
阶段状态 In Orbit
所有者/国家 SPXS/US

Most Searched